Date,TemperatureHighF,TemperatureAvgF,TemperatureLowF,DewpointHighF,DewpointAvgF,DewpointLowF,HumidityHigh,HumidityAvg,HumidityLow,PressureMaxIn,PressureMinIn,WindSpeedMaxMPH,WindSpeedAvgMPH,GustSpeedMaxMPH,PrecipitationSumIn
2013-11-1,62,56,47,60,53,45,99,93,66,29.62,29.02,7,5,23,0.33
2013-11-2,45,39,31,38,32,22,89,76,69,29.84,29.52,4,2,7,0.00
2013-11-3,37,29,22,21,19,14,88,65,47,30.37,29.84,5,2,9,0.00
2013-11-4,37,27,17,22,18,15,91,71,48,30.70,30.39,5,1,5,0.00
2013-11-5,39,28,15,28,21,13,95,77,49,30.72,30.41,4,1,8,0.00
2013-11-6,49,41,34,42,34,28,89,76,60,30.41,29.78,5,2,12,0.00
2013-11-7,51,43,31,50,41,28,98,93,83,29.75,29.50,7,3,10,0.25
2013-11-8,39,34,29,30,28,25,92,79,60,29.70,29.60,5,1,8,0.00
2013-11-9,33,31,29,29,25,22,95,77,69,30.05,29.71,7,3,13,0.00
2013-11-10,33,30,27,30,27,23,98,89,74,30.04,29.69,3,0,3,0.03
2013-11-11,33,31,30,31,29,29,97,92,84,29.88,29.70,4,1,9,0.05
2013-11-12,33,26,21,32,22,16,97,84,68,29.88,29.69,5,3,14,0.01
2013-11-13,31,24,19,19,16,14,86,70,50,30.04,29.90,8,3,15,0.00
2013-11-14,36,31,20,31,26,15,87,83,80,29.96,29.81,4,2,13,0.00
2013-11-15,45,38,32,33,32,30,93,80,61,30.13,29.96,5,2,11,0.11
2013-11-16,48,37,27,37,32,26,96,83,55,30.33,30.14,1,0,5,0.00
2013-11-17,49,34,22,40,31,20,98,91,57,30.34,30.02,4,1,7,0.17
2013-11-18,52,45,40,51,43,33,100,92,68,30.00,29.31,5,2,14,0.83
2013-11-19,41,33,28,34,24,16,87,70,62,29.98,29.41,8,5,23,0.00
2013-11-20,30,24,19,16,10,7,81,54,37,30.60,30.02,9,4,15,0.00
2013-11-21,42,26,15,21,17,9,94,72,26,30.60,30.32,2,0,9,0.00
2013-11-22,38,30,22,28,23,18,92,79,49,30.31,29.70,2,0,6,0.00
2013-11-23,32,27,18,32,23,13,98,84,71,29.67,29.44,8,3,24,0.00
2013-11-24,18,17,16,13,11,9,84,77,69,29.63,29.39,9,6,27,0.00
2013-11-25,21,17,15,13,8,6,87,68,56,30.19,29.65,9,5,17,0.00
2013-11-26,32,25,16,26,21,13,91,86,76,30.28,30.15,3,1,8,0.00
2013-11-27,49,37,26,49,36,23,100,97,85,30.22,29.10,4,2,13,1.56
2013-11-28,34,24,14,34,22,11,98,90,82,30.19,29.16,7,3,23,0.03
2013-11-29,20,13,8,12,9,6,93,85,66,30.66,30.20,4,1,14,0.00
2013-11-30,19,13,2,15,9,-1,94,83,64,30.77,30.44,2,0,8,0.00